This demonstration page uses our WeatherBlox Daily Observations layout. Learn more.

Left ArrowRight Arrow

39.51506, -84.39828

Hourly Observations for October 23, 2015

Temp ( °F °C ) Dew Point ( °F °C ) Humidity (%) Winds ( mph kmh ) Pressure ( in mb ) Visibility ( mi km ) Precip ( " mm )
12:15 am 00:15 Partly Cloudy 63 17.2 51 10.6 65 65 N N/A 30.27 1025 10 16 N/A
12:35 am 00:35 Partly Cloudy 62 16.4 51 10.7 69 69 N N/A 30.24 1024 10 16 N/A
12:55 am 00:55 Mostly Cloudy 61 16 52 11 72 72 N N/A 30.24 1024 10 16 N/A
1:15 am 01:15 Cloudy 61 16 51 10.8 71 71 N N/A 30.24 1024 10 16 N/A
1:35 am 01:35 Cloudy 62 16.6 51 10.5 67 67 N N/A 30.24 1024 10 16 N/A
1:55 am 01:55 Cloudy 62 16.6 50 10 65 65 N N/A 30.24 1024 10 16 N/A
2:15 am 02:15 Partly Cloudy 61 16 49 9.4 65 65 NNE 6 9 30.24 1024 10 16 N/A
2:35 am 02:35 Clear 61 16 48 9.1 64 64 N N/A 30.24 1024 10 16 N/A
2:55 am 02:55 Clear 60 15.3 49 9.7 69 69 N N/A 30.24 1024 10 16 N/A
3:15 am 03:15 Clear 60 15.3 49 9.7 69 69 NNE 5 7 30.24 1024 10 16 N/A
3:35 am 03:35 Clear 60 15.3 49 9.6 69 69 N N/A 30.24 1024 10 16 N/A
3:55 am 03:55 Clear 57 14 48 9.1 73 73 N N/A 30.24 1024 10 16 N/A
4:15 am 04:15 Clear 57 13.8 50 9.8 77 77 N N/A 30.24 1024 10 16 N/A
4:35 am 04:35 Clear 55 12.7 48 9.1 79 79 N N/A 30.24 1024 10 16 N/A
4:55 am 04:55 Clear 55 12.5 47 8.3 76 76 N N/A 30.24 1024 10 16 N/A
5:15 am 05:15 Clear 55 12.5 47 8.3 76 76 N N/A 30.24 1024 10 16 N/A
5:35 am 05:35 Clear 55 12.5 48 8.8 78 78 N N/A 30.24 1024 10 16 N/A
5:55 am 05:55 Clear 55 12.5 48 9.1 80 80 N N/A 30.24 1024 10 16 N/A
6:15 am 06:15 Clear 55 12.5 48 8.9 79 79 N N/A 30.24 1024 10 16 N/A
6:35 am 06:35 Clear 55 12.5 48 9 79 79 N N/A 30.24 1024 10 16 N/A
6:55 am 06:55 Clear 55 12.5 47 8.6 77 77 N N/A 30.24 1024 10 16 N/A
7:15 am 07:15 Clear 55 12.5 47 8.3 76 76 NNE 3 6 30.24 1024 10 16 N/A
7:35 am 07:35 Clear 55 12.5 47 8.4 76 76 N N/A 30.27 1025 10 16 N/A
7:55 am 07:55 Clear 55 12.5 48 8.7 78 78 N N/A 30.27 1025 10 16 N/A
8:15 am 08:15 Sunny 55 12.5 48 8.7 78 78 N N/A 30.27 1025 10 16 N/A
8:35 am 08:35 Sunny 55 12.5 48 9.1 80 80 N N/A 30.27 1025 10 16 N/A
8:55 am 08:55 Sunny 57 13.8 50 10 78 78 N N/A 30.27 1025 10 16 N/A
9:15 am 09:15 Sunny 58 14.3 49 9.3 72 72 ENE 6 9 30.27 1025 10 16 N/A
9:35 am 09:35 Sunny 60 15.3 48 9.1 67 67 E 7 11 30.27 1025 10 16 N/A
9:55 am 09:55 Sunny 60 15.6 48 8.7 64 64 E 9 15 30.27 1025 10 16 N/A
10:15 am 10:15 Sunny 62 16.4 48 8.8 61 61 E 8 13 30.27 1025 10 16 N/A
10:35 am 10:35 Sunny 62 16.6 48 8.7 60 60 E 8 13 30.27 1025 10 16 N/A
10:55 am 10:55 Sunny 64 17.5 49 9.2 58 58 ENE 8 13 30.24 1024 10 16 N/A
11:15 am 11:15 Sunny 65 18.4 49 9.6 57 57 ESE 8 13 30.24 1024 10 16 N/A
11:35 am 11:35 Sunny 68 20 51 10.5 54 54 ESE 7 11 30.24 1024 10 16 N/A
11:55 am 11:55 Sunny 69 20.8 52 10.9 53 53 E 8 13 30.21 1023 10 16 N/A
12:15 pm 12:15 Sunny 69 20.8 51 10.4 52 52 E 6 9 30.21 1023 10 16 N/A
12:35 pm 12:35 Sunny 69 20.8 50 10.1 51 51 E 6 9 30.21 1023 10 16 N/A
12:55 pm 12:55 Sunny 71 21.5 50 10 48 48 E 8 13 30.21 1023 10 16 N/A
1:15 pm 13:15 Sunny 72 22 51 10.5 48 48 ESE 7 11 30.18 1022 10 16 N/A
1:35 pm 13:35 Sunny 74 23.6 53 11.6 47 47 ESE 7 11 30.18 1022 10 16 N/A
1:55 pm 13:55 Sunny 74 23.6 53 11.6 47 47 E 7 11 30.18 1022 10 16 N/A
2:15 pm 14:15 Sunny 74 23.6 52 11.1 45 45 E 5 7 30.15 1021 10 16 N/A
2:35 pm 14:35 Sunny 74 23.6 52 10.9 45 45 ESE 6 9 30.15 1021 10 16 N/A
2:55 pm 14:55 Sunny 74 23.6 51 10.4 43 43 ESE 8 13 30.15 1021 10 16 N/A
3:15 pm 15:15 Sunny 74 23.6 51 10.6 44 44 E 8 13 30.12 1020 10 16 N/A
3:35 pm 15:35 Sunny 74 23.6 52 11.2 46 46 E 8 13 30.12 1020 10 16 N/A
3:55 pm 15:55 Sunny 76 24.5 52 11.3 44 44 E 6 9 30.12 1020 10 16 N/A
4:15 pm 16:15 Sunny 75 23.7 52 11 45 45 ESE 7 11 30.09 1019 10 16 N/A
4:35 pm 16:35 Sunny 74 23.6 52 10.9 45 45 E 6 9 30.09 1019 10 16 N/A
4:55 pm 16:55 Sunny 75 23.9 52 11.3 45 45 E 7 11 30.09 1019 10 16 N/A
5:15 pm 17:15 Sunny 74 23.6 52 11 45 45 E 7 11 30.09 1019 10 16 N/A
5:35 pm 17:35 Sunny 77 25.1 54 12 44 44 ESE 6 9 30.09 1019 10 16 N/A
5:55 pm 17:55 Sunny 74 23.6 54 12.1 49 49 SE 7 11 30.09 1019 10 16 N/A
6:15 pm 18:15 Sunny 74 23.6 55 12.6 50 50 SE 6 9 30.09 1019 10 16 N/A
6:35 pm 18:35 Sunny 71 21.7 53 11.7 53 53 E 6 9 30.09 1019 10 16 N/A
6:55 pm 18:55 Clear 69 20.8 54 12.1 58 58 E 6 9 30.09 1019 10 16 N/A
7:15 pm 19:15 Clear 69 20.8 54 12 57 57 E 3 6 30.09 1019 10 16 N/A
7:35 pm 19:35 Clear 69 20.8 54 12 57 57 E 5 7 30.09 1019 10 16 N/A
7:55 pm 19:55 Clear 69 20.8 53 11.6 56 56 E 5 7 30.09 1019 10 16 N/A
8:15 pm 20:15 Clear 69 20.8 53 11.4 55 55 E 6 9 30.09 1019 10 16 N/A
8:35 pm 20:35 Clear 69 20.8 52 11.1 54 54 ESE 6 9 30.09 1019 10 16 N/A
8:55 pm 20:55 Clear 69 20.8 52 11.3 55 55 ESE 5 7 30.09 1019 10 16 N/A
9:15 pm 21:15 Clear 69 20.8 53 11.5 55 55 E 5 7 30.09 1019 10 16 N/A
9:35 pm 21:35 Clear 69 20.8 53 11.6 56 56 E 3 6 30.09 1019 10 16 N/A
9:55 pm 21:55 Clear 64 18 52 11.2 65 65 WNW 3 6 30.09 1019 10 16 N/A
10:15 pm 22:15 Clear 67 19.5 53 11.9 62 62 N N/A 30.09 1019 10 16 N/A
10:35 pm 22:35 Clear 66 19.1 53 11.9 63 63 N N/A 30.09 1019 10 16 N/A
10:55 pm 22:55 Clear 64 17.6 53 11.5 68 68 N N/A 30.06 1018 10 16 N/A
11:15 pm 23:15 Clear 67 19.5 55 12.5 64 64 N N/A 30.06 1018 10 16 N/A
11:35 pm 23:35 Partly Cloudy 69 20.8 56 13.3 62 62 SSE 3 6 30.06 1018 10 16 N/A
11:55 pm 23:55 Partly Cloudy 69 20.8 56 13.5 63 63 SE 5 7 30.06 1018 10 16 N/A

Powered by AerisWeather